Regional Weather Roundup
Issued by NWS

Home | Current Version | Previous Version | Graphics & Text | Print | Product List | Glossary On
Versions: 1 2 3 4 5 6 7 8 9 10 11 12 13 14 15 16 17 18 19 20 21 22 23 24 25 26 27 28 29 30 31 32 33 34 35 36 37 38 39 40 41 42 43 44 45 46 47 48 49 50
847
ASUS45 KCYS 180710
RWRWY

WYOMING REGIONAL WEATHER ROUNDUP
NATIONAL WEATHER SERVICE CHEYENNE WY
1200 AM MST MON DEC 18 2017

NOTE:  "FAIR" INDICATES FEW OR NO CLOUDS BELOW 12,000 FEET
WITH NO SIGNIFICANT WEATHER AND/OR OBSTRUCTIONS TO VISIBILITY.

WYZ001-180800-
YELLOWSTONE NATIONAL PARK

CITY           SKY/WX    TMP DP  RH WIND       PRES   REMARKS
LK YELLOWSTONE   N/A     13  10  88 CALM      30.09F
W YELLOWSTONE  NOT AVBL

$$
WYZ002>013-054>058-071-098>099-180800-
NORTHERN WYOMING

CITY           SKY/WX    TMP DP  RH WIND       PRES   REMARKS
JACKSON        FLURRIES  23  15  71 S18       30.12F WCI   9
CODY           FAIR      27  18  69 CALM      29.90S
GREYBULL       FAIR      14  13  95 S3        29.96F
WORLAND        FAIR      12  11  95 SW5       29.95F WCI   4
SHERIDAN       FAIR      17  14  88 E3        29.81F
BUFFALO        FAIR      27  13  55 CALM      29.83F
GILLETTE       FAIR      30  16  56 SW17      29.84F WCI  18
HULETT         FAIR      32  19  59 SW9       29.84F WCI  24
NEWCASTLE      FAIR      16  14  93 CALM      29.90S

$$
WYZ014>020-022>026-101>103-180800-
CENTRAL WYOMING

CITY           SKY/WX    TMP DP  RH WIND       PRES   REMARKS
BIG PINEY      FAIR      13   9  84 CALM      30.10S
PINEDALE       CLOUDY    18  12  79 CALM      30.10R
DUBOIS         CLOUDY    23  16  74 N24G31    29.96F WCI   7
LANDER         FAIR      21  14  74 CALM      29.93F
RIVERTON       FAIR      18  13  80 CALM      29.96S
CASPER         FAIR      28  17  63 SW22      29.95S WCI  14
DOUGLAS        FAIR      27  19  72 NW10      29.92S WCI  17

$$
WYZ021-027>030-104>119-180800-
SOUTHERN WYOMING

CITY           SKY/WX    TMP DP  RH WIND       PRES   REMARKS
EVANSTON       FAIR      18  16  92 SW10      30.17F WCI   6
FORT BRIDGER   FAIR      22  15  72 W16G24    30.18S WCI   8
ROCK SPRINGS   FAIR      21  12  68 SW22      30.11R WCI   5
DIXON          PTSUNNY   17  13  83 CALM      30.19R
RAWLINS        MOCLDY    23  14  68 VRB6      30.08S WCI  16
LARAMIE        FAIR      26  14  60 SW29G37   29.95F WCI  10
CHEYENNE       FAIR      25  22  88 CALM      29.94R
TORRINGTON     FAIR      25  14  63 S5        29.93S WCI  19
PINE BLUFFS    FAIR      19  18  93 S5        29.96R WCI  13

$$




USA.gov is the U.S. government's official web portal to all federal, state and local government web resources and services.